Weather History for McAllen, TX

Change the Weather History Date:

Wednesday, December 25, 2013

  Actual Average Record
Temperature  
Mean Temperature 62 °F 61 °F  
Max Temperature 72 °F 71 °F 90 °F (1951)
Min Temperature 51 °F 51 °F 19 °F (1920)
Degree Days  
Heating Degree Days 3 7  
Month to date heating degree days 175 136  
Since 1 July heating degree days 301 196  
Cooling Degree Days 0 2  
Month to date cooling degree days 46 70  
Year to date cooling degree days 4581 4439  
Growing Degree Days 12 (Base 50)    
Moisture  
Dew Point 54 °F    
Average Humidity 73    
Maximum Humidity 89    
Minimum Humidity 57    
Precipitation  
Precipitation 0.16 in 0.04 in 0.69 in (1958)
Month to date precipitation 0.18 0.94  
Year to date precipitation 15.65 21.95  
Sea Level Pressure  
Sea Level Pressure 30.23 in    
Wind  
Wind Speed 2 mph (NNE)    
Max Wind Speed 12 mph    
Max Gust Speed 14 mph    
Visibility 9 miles    
Events Rain    
T = Trace of Precipitation, MM = Missing Value Source: NWS Daily Summary

Daily Weather History Graph

Daily Weather History Graph

Search for Another Location

Airport:

Trip Planner

Search our weather history database for the weather conditions in past years. The results will help you decide how hot, cold, wet, or windy it might be!

Date:

Astronomy

Dec. 25, 2013 Rise Set
Actual Time 7:18 AM CST 5:48 PM CST
Civil Twilight 6:52 AM CST 6:13 PM CST
Nautical Twilight 6:23 AM CST 6:42 PM CST
Astronomical Twilight 5:55 AM CST 7:10 PM CST
Moon 12:18 AM CST (12/25) 12:24 PM CST (12/25)
Length of Visible Light 11h 20m
Length of Day
10h 30m
Waning Gibbous, 48% of the Moon is Illuminated
Dec 25
Waning Gibbous
Jan 1
New
Jan 7
First Quarter
Jan 15
Full
Jan 23
Last Quarter

Hourly Weather History & Observations

Time (CST) Temp. Dew Point Humidity Pressure Visibility Wind Dir Wind Speed Gust Speed Precip Events Conditions
12:53 AM 53.1 °F 48.0 °F 83% 30.24 in 9.0 mi Calm Calm - N/A   Mostly Cloudy
1:53 AM 52.0 °F 48.0 °F 86% 30.21 in 9.0 mi Calm Calm - N/A   Mostly Cloudy
2:53 AM 52.0 °F 48.0 °F 86% 30.20 in 9.0 mi Calm Calm - N/A   Mostly Cloudy
3:53 AM 55.0 °F 48.9 °F 80% 30.20 in 10.0 mi Calm Calm - N/A   Mostly Cloudy
4:53 AM 53.1 °F 46.9 °F 80% 30.18 in 10.0 mi Calm Calm - N/A   Partly Cloudy
5:53 AM 52.0 °F 46.9 °F 83% 30.19 in 10.0 mi Calm Calm - N/A   Partly Cloudy
6:53 AM 51.1 °F 46.9 °F 86% 30.19 in 10.0 mi Calm Calm - N/A   Clear
7:53 AM 52.0 °F 46.9 °F 83% 30.22 in 10.0 mi NE 3.5 mph - N/A   Clear
8:53 AM 55.9 °F 48.9 °F 77% 30.24 in 10.0 mi Calm Calm - N/A   Mostly Cloudy
9:53 AM 60.1 °F 51.1 °F 72% 30.25 in 10.0 mi Calm Calm - N/A   Scattered Clouds
10:53 AM 64.9 °F 53.1 °F 65% 30.25 in 10.0 mi Calm Calm - N/A   Scattered Clouds
11:53 AM 69.1 °F 55.0 °F 61% 30.24 in 10.0 mi ESE 3.5 mph - N/A   Mostly Cloudy
12:53 PM 72.0 °F 55.0 °F 55% 30.21 in 10.0 mi Calm Calm - N/A   Mostly Cloudy
1:53 PM 70.0 °F 55.0 °F 59% 30.19 in 10.0 mi Calm Calm - N/A   Overcast
2:53 PM 70.0 °F 55.0 °F 59% 30.19 in 10.0 mi Calm Calm - N/A   Overcast
3:53 PM 70.0 °F 55.0 °F 59% 30.18 in 10.0 mi Calm Calm - N/A   Overcast
4:53 PM 70.0 °F 54.0 °F 57% 30.18 in 10.0 mi Calm Calm - N/A   Overcast
5:53 PM 68.0 °F 55.9 °F 65% 30.20 in 10.0 mi ENE 6.9 mph - N/A   Overcast
6:53 PM 66.9 °F 57.0 °F 70% 30.22 in 10.0 mi East 8.1 mph - N/A   Overcast
7:53 PM 66.0 °F 57.0 °F 73% 30.24 in 10.0 mi ENE 4.6 mph - N/A   Overcast
8:53 PM 66.0 °F 57.0 °F 73% 30.26 in 10.0 mi NE 5.8 mph - N/A   Overcast
9:42 PM 66.2 °F 57.2 °F 73% 30.27 in 10.0 mi North 3.5 mph - N/A   Overcast
9:53 PM 64.9 °F 57.0 °F 75% 30.27 in 10.0 mi North 3.5 mph - N/A   Overcast
10:49 PM 62.6 °F 60.8 °F 94% 30.29 in 7.0 mi NW 4.6 mph - 0.12 in Rain Light Rain
10:53 PM 62.1 °F 60.1 °F 93% 30.29 in 8.0 mi NW 3.5 mph - 0.12 in Rain Light Rain
11:19 PM 62.6 °F 60.8 °F 94% 30.29 in 8.0 mi Calm Calm - 0.01 in Rain Light Rain
11:53 PM 62.1 °F 60.1 °F 93% 30.28 in 4.0 mi WNW 4.6 mph - 0.03 in Rain Rain